Wind_Speed
33 33 31 33 32 32 30 33 32 32 31 29 30 29 30 29 28 28 26 27 28 26 25 26 26 26 25 26 26 24 19 23 26 21 16 18 20 16 25 23 21 24 24 27 26
38 38 37 36 36 36 36 37 36 36 33 31 32 33 34 33 31 28 29 28 28 27 24 21 25 27 28 27 28 27 22 23 23 22 20 18 24 20 23 21 22 26 24 27 27
40 39 40 41 41 41 40 41 41 40 39 38 37 34 37 36 35 33 30 23 16 19 19 20 21 21 23 27 29 28 32 23 28 29 26 24 26 24 24 24 25 25 25 26 25
38 40 40 40 43 43 44 43 43 43 42 41 39 38 37 37 27 19 24 30 31 29 28 27 25 24 25 27 25 29 31 32 29 28 26 26 24 28 24 26 24 27 27 27 25
38 38 39 41 42 44 44 44 42 41 40 42 43 42 40 43 43 37 35 35 33 31 30 29 29 28 29 24 25 32 29 29 28 29 27 26 28 26 25 19 20 22 23 23 25
39 39 38 39 41 44 45 44 44 43 44 47 45 46 46 52 44 35 33 28 27 26 27 28 28 32 30 31 31 19 26 27 26 27 25 25 23 19 22 16 18 20 21 22 23
39 40 39 37 39 41 43 44 43 42 46 48 49 50 54 53 42 44 42 43 40 37 32 31 33 33 28 25 33 34 30 23 24 26 22 19 25 27 19 18 21 19 16 17 20
37 39 39 35 37 39 39 41 41 41 44 48 49 51 59 56 49 45 42 43 40 37 38 37 36 34 27 22 24 23 20 21 14 15 18 16 20 12 9 13 14 14 14 19 21
37 37 38 36 37 39 36 36 38 40 41 45 46 50 59 54 45 38 30 29 40 45 43 41 38 35 24 25 24 23 25 21 18 11 12 15 14 14 11 14 16 14 14 18 20
39 38 37 37 38 39 37 36 38 36 40 41 43 44 45 41 36 30 29 29 28 30 38 40 35 27 28 28 34 25 26 23 21 14 16 17 18 16 18 18 18 16 16 20 19
39 39 38 37 39 39 37 35 35 38 40 40 38 42 39 42 39 43 37 32 37 43 35 39 32 43 34 31 30 19 20 18 15 15 15 21 23 20 19 18 17 15 17 17 17
38 37 37 38 39 37 38 36 39 40 37 39 38 44 44 47 47 44 43 37 36 35 27 27 41 34 27 28 28 28 25 26 22 21 19 18 20 18 19 19 16 13 13 10 9
36 36 36 37 37 37 36 33 39 29 28 40 41 42 44 44 44 42 38 36 36 30 27 30 28 22 30 29 27 28 29 23 20 11 14 16 22 18 12 14 15 13 10 8 8
36 36 36 36 34 37 37 33 28 30 16 32 45 36 30 34 39 36 47 32 35 38 33 33 39 33 22 29 28 31 23 19 15 13 15 10 5 12 10 11 11 8 7 8 9
35 35 33 33 36 34 32 30 25 25 7 12 22 22 21 18 17 14 9 40 33 18 28 28 21 30 25 17 21 25 16 16 16 17 17 18 11 10 16 12 12 7 7 7 12
32 29 26 24 23 23 27 27 30 16 10 10 14 12 12 13 16 13 13 24 31 25 25 25 15 20 17 19 25 15 11 12 14 15 17 21 17 13 18 13 12 6 8 9 11
27 23 25 24 29 25 27 33 17 10 7 8 9 13 13 10 14 11 16 30 24 14 17 13 17 15 13 12 14 28 17 8 10 10 13 6 14 9 14 7 8 8 11 12 14
18 20 29 33 37 32 24 23 13 6 13 11 7 9 11 9 12 16 18 25 21 13 8 13 9 21 15 18 14 28 28 16 10 11 11 7 9 7 10 15 12 12 12 12 16
20 28 26 19 18 20 18 19 9 12 12 10 9 9 12 12 8 17 20 23 19 14 12 18 12 19 18 19 18 21 30 26 14 8 7 12 9 4 8 11 12 11 11 14 15
23 23 23 20 19 19 20 15 14 11 10 5 13 10 10 13 11 15 19 17 15 23 13 6 7 12 12 16 20 12 18 12 15 12 15 15 13 6 7 5 7 7 8 12 17
23 21 20 18 16 19 19 11 14 14 10 4 10 10 14 4 11 13 16 13 20 25 16 10 9 9 11 6 6 8 10 9 6 8 7 11 4 9 6 7 5 8 11 16 20
19 19 18 17 23 27 18 13 16 10 12 6 8 13 12 6 9 13 11 10 23 21 16 14 9 7 6 9 11 11 6 6 10 10 8 9 11 7 12 14 14 19 22 25 25
22 18 21 26 28 23 17 13 15 6 10 10 7 14 7 11 4 11 10 13 15 15 14 10 5 4 4 9 14 7 13 16 15 13 13 12 8 5 8 13 24 29 31 32 32
21 18 28 30 30 21 17 15 14 15 11 9 8 15 11 10 6 11 14 12 16 16 11 12 13 9 7 3 6 6 9 8 10 6 8 15 16 11 16 21 20 26 31 27 25
25 15 24 34 34 23 17 13 17 11 12 10 7 8 15 8 7 11 18 20 18 15 14 14 7 11 5 7 7 6 8 10 13 14 10 13 14 19 23 24 25 31 27 22 22
23 13 22 9 23 23 20 15 17 13 11 11 7 5 6 9 7 14 17 15 10 14 12 10 6 10 7 7 7 11 12 13 16 17 19 19 21 15 22 23 22 23 21 19 18
20 16 22 9 20 20 20 12 15 14 12 10 7 8 12 11 9 10 14 13 8 10 11 8 7 6 3 2 2 8 8 13 13 11 11 16 16 23 20 22 21 21 19 16 15
Wind_Direction
275 274 274 274 274 274 277 279 282 280 280 285 285 284 284 284 283 286 290 290 290 285 283 284 283 280 273 268 265 259 247 252 257 260 262 267 278 271 264 265 266 265 266 271 266
273 273 272 271 271 270 273 278 281 279 277 281 284 282 284 285 287 285 285 287 285 286 283 282 280 276 270 266 262 254 251 261 256 249 263 263 276 261 269 268 267 267 272 275 274
275 274 272 271 270 269 270 274 277 278 275 279 279 281 284 286 288 289 289 287 278 276 278 279 276 278 273 267 261 264 252 258 266 270 269 266 265 268 269 266 270 273 266 267 265
274 274 274 272 270 269 270 272 274 276 277 278 275 277 280 282 282 280 285 286 283 281 281 283 280 275 271 265 267 259 269 263 268 270 271 268 269 266 263 272 271 271 266 264 264
277 275 274 274 272 271 269 269 270 272 276 274 277 279 276 275 271 277 279 279 279 278 277 275 275 272 262 266 257 266 266 269 272 269 273 270 268 273 265 271 262 265 264 260 262
276 277 277 275 273 271 271 270 270 272 274 276 276 274 275 273 281 274 275 281 276 275 279 270 269 266 260 257 258 264 266 266 268 270 271 268 271 262 270 266 260 256 261 265 263
276 277 276 276 275 274 273 272 270 268 269 270 272 275 273 276 279 274 278 276 276 275 273 271 265 260 262 259 261 260 262 262 260 262 256 270 263 254 272 257 258 258 256 257 261
273 275 276 274 273 273 274 276 273 270 268 268 270 271 272 277 280 284 282 275 267 268 269 266 265 259 242 243 256 255 255 253 255 236 239 239 258 252 237 229 245 254 257 259 263
274 273 273 272 271 272 275 274 271 268 267 266 269 267 278 280 286 288 283 282 266 262 259 257 253 250 244 239 250 241 245 242 237 222 230 225 252 251 234 247 244 254 261 265 266
275 273 271 270 269 270 271 269 268 266 264 268 271 275 276 283 277 272 273 276 259 263 251 242 234 231 231 227 232 241 244 243 236 238 239 241 241 244 251 257 256 257 257 265 264
274 272 270 267 264 266 268 263 259 267 265 268 269 268 266 268 271 273 275 272 259 262 247 233 221 228 230 231 234 258 249 246 235 225 253 249 255 257 254 252 258 259 260 252 247
273 269 266 263 262 259 255 258 256 264 272 270 272 273 269 274 276 274 273 264 257 247 228 217 231 232 241 236 235 238 246 251 259 256 249 259 258 256 256 252 241 222 235 234 250
270 267 262 260 256 253 253 249 255 266 269 274 275 275 274 273 273 261 259 254 254 242 225 225 240 236 239 241 233 242 243 250 251 247 253 261 268 248 228 208 207 207 220 244 261
268 263 259 257 251 251 247 249 257 250 262 274 278 280 276 269 271 262 246 240 242 248 222 225 234 239 258 243 236 238 236 236 242 249 252 212 260 185 214 192 185 199 222 252 288
266 261 260 252 251 251 248 245 255 251 277 258 246 262 268 264 260 291 252 233 230 214 209 232 214 215 228 229 231 239 240 237 238 247 256 246 252 216 189 196 186 197 249 278 299
261 260 258 253 259 249 243 255 240 227 230 230 241 250 260 270 255 252 234 214 219 215 215 215 213 202 220 231 223 243 236 230 233 236 245 246 228 192 197 193 188 210 259 275 299
256 249 259 251 249 261 245 247 218 224 214 227 242 257 263 253 269 222 214 199 201 196 219 225 229 230 221 213 225 215 211 212 227 219 242 220 226 207 183 185 186 233 260 279 307
253 255 258 246 232 234 232 225 218 215 220 239 239 257 239 240 242 211 198 202 209 222 233 209 214 211 212 215 214 197 200 215 214 227 231 181 229 174 205 205 223 266 258 281 314
233 229 223 227 238 243 231 209 213 222 226 241 242 259 237 225 213 202 211 213 210 197 218 200 211 205 219 215 200 199 215 230 268 265 269 209 192 131 200 229 252 246 273 304 317
221 231 245 245 234 229 218 213 219 198 192 236 222 225 223 211 203 194 189 197 208 203 201 193 165 180 185 195 207 198 198 210 219 245 241 240 242 220 173 188 228 266 311 320 328
235 237 233 229 216 207 207 206 198 195 194 194 217 225 202 193 210 181 189 192 193 198 208 202 217 195 187 196 181 197 208 223 235 254 271 270 252 204 183 210 240 282 302 314 319
220 215 211 200 193 201 210 202 205 203 204 226 233 224 231 176 200 176 178 180 188 187 199 199 200 159 193 233 228 223 226 220 245 227 246 280 278 257 253 257 279 298 306 311 311
209 208 194 189 192 205 213 212 212 193 208 210 232 200 167 171 167 193 190 182 160 176 176 186 183 198 245 257 247 230 241 242 244 242 250 259 270 291 272 286 303 283 298 302 303
206 191 186 191 205 204 199 203 207 197 203 219 227 208 155 174 184 169 174 172 179 180 193 198 205 224 244 214 181 198 205 212 212 218 261 242 273 272 295 294 300 293 303 297 296
203 197 197 205 205 203 194 194 193 190 207 192 207 203 174 163 169 160 176 175 180 195 196 199 201 214 218 213 208 205 214 236 238 250 259 270 281 293 301 301 284 287 298 292 289
185 181 179 199 193 195 192 189 195 190 189 195 182 185 175 186 187 191 184 175 182 197 200 204 201 209 236 247 255 258 253 250 249 255 260 274 284 290 289 298 300 292 287 286 284
174 179 166 175 181 185 191 186 190 195 215 227 189 211 185 210 216 202 200 207 211 203 209 212 211 194 219 183 247 264 257 251 243 247 261 272 282 287 305 286 295 295 287 280 283
Height
3124 3123 3122 3123 3122 3122 3120 3120 3118 3119 3119 3119 3119 3119 3116 3116 3116 3116 3116 3116 3114 3114 3113 3113 3113 3113 3112 3111 3112 3114 3114 3111 3112 3112 3112 3109 3110 3109 3106 3108 3108 3108 3108 3107 3109
3116 3116 3115 3115 3115 3114 3113 3112 3112 3112 3112 3113 3114 3114 3110 3110 3110 3110 3110 3109 3109 3108 3108 3108 3107 3107 3107 3107 3105 3106 3107 3107 3108 3106 3106 3105 3103 3104 3102 3103 3103 3103 3104 3101 3101
3108 3108 3108 3108 3108 3106 3105 3104 3105 3105 3104 3106 3107 3107 3106 3105 3104 3105 3103 3103 3103 3102 3103 3103 3102 3103 3101 3100 3099 3098 3096 3102 3098 3098 3098 3098 3097 3097 3096 3095 3098 3098 3098 3097 3097
3101 3100 3099 3100 3099 3098 3098 3097 3097 3097 3097 3097 3097 3099 3099 3098 3102 3099 3099 3098 3099 3098 3097 3097 3097 3097 3097 3094 3095 3091 3090 3091 3092 3091 3092 3091 3091 3090 3089 3091 3091 3090 3090 3091 3091
3091 3092 3091 3092 3091 3090 3088 3089 3088 3089 3089 3088 3089 3090 3090 3087 3088 3092 3092 3091 3092 3091 3092 3091 3091 3092 3089 3089 3090 3085 3086 3084 3085 3084 3085 3085 3083 3082 3081 3085 3084 3083 3083 3084 3084
3082 3083 3084 3083 3083 3081 3080 3081 3081 3082 3082 3081 3079 3080 3080 3074 3084 3087 3086 3086 3086 3085 3086 3085 3085 3084 3081 3080 3081 3081 3079 3079 3078 3078 3078 3077 3077 3076 3077 3079 3078 3077 3078 3078 3079
3073 3074 3075 3075 3075 3072 3073 3072 3074 3076 3074 3073 3071 3069 3067 3068 3076 3076 3080 3079 3080 3080 3079 3080 3078 3076 3077 3075 3072 3075 3073 3072 3072 3072 3072 3072 3070 3069 3071 3074 3073 3073 3074 3074 3074
3064 3065 3065 3067 3067 3064 3064 3065 3066 3068 3066 3064 3063 3061 3051 3059 3065 3069 3071 3069 3071 3071 3071 3070 3069 3069 3069 3072 3068 3068 3070 3068 3065 3067 3068 3067 3066 3067 3067 3066 3069 3071 3070 3069 3070
3054 3056 3057 3059 3058 3056 3057 3058 3057 3058 3057 3055 3056 3054 3046 3051 3057 3060 3061 3060 3061 3058 3061 3061 3060 3060 3064 3066 3066 3062 3060 3061 3062 3059 3063 3061 3061 3063 3062 3061 3063 3064 3066 3065 3065
3045 3046 3047 3049 3048 3048 3050 3050 3048 3048 3047 3049 3049 3051 3048 3047 3046 3049 3052 3052 3051 3049 3051 3051 3051 3053 3053 3058 3051 3058 3055 3056 3056 3056 3054 3055 3055 3056 3058 3058 3057 3059 3059 3060 3060
3036 3036 3038 3038 3037 3039 3043 3042 3041 3041 3038 3041 3041 3038 3038 3036 3038 3039 3041 3044 3043 3041 3041 3044 3044 3035 3047 3049 3052 3052 3052 3052 3052 3053 3050 3050 3049 3050 3053 3053 3053 3053 3051 3053 3053
3027 3027 3027 3027 3028 3032 3030 3030 3031 3033 3032 3032 3032 3027 3029 3028 3029 3031 3034 3036 3034 3032 3037 3039 3028 3037 3044 3045 3046 3047 3047 3047 3048 3049 3045 3046 3044 3044 3046 3047 3046 3047 3046 3046 3047
3016 3018 3017 3017 3019 3019 3021 3021 3023 3028 3027 3025 3021 3019 3019 3020 3017 3024 3023 3023 3024 3025 3028 3028 3031 3032 3037 3039 3039 3039 3041 3043 3044 3044 3041 3041 3039 3036 3037 3039 3039 3040 3041 3041 3041
3007 3008 3006 3008 3011 3009 3011 3015 3018 3024 3022 3018 3009 3006 3009 3007 3006 3008 3012 3018 3014 3014 3015 3017 3019 3025 3030 3031 3036 3033 3037 3038 3039 3041 3037 3037 3031 3030 3033 3035 3036 3036 3037 3036 3035
2997 2996 2998 2997 2998 3003 3007 3010 3015 3021 3016 3010 3003 3000 3000 3005 3004 3002 3004 3006 3008 3010 3010 3008 3013 3011 3022 3023 3032 3032 3034 3033 3035 3035 3036 3033 3034 3023 3028 3032 3033 3033 3032 3031 3031
2988 2989 2988 2991 2991 2996 2999 3003 3010 3015 3005 3002 2998 2995 2997 2997 2999 2998 3000 3003 3005 3004 3003 3006 3008 3010 3017 3021 3021 3031 3031 3031 3032 3031 3027 3026 3027 3018 3024 3026 3029 3028 3028 3028 3026
2978 2983 2979 2982 2986 2990 2993 2998 3003 2997 2995 2997 2994 2993 2993 2992 2992 2995 2995 2996 2998 3000 3002 3004 3006 3009 3009 3013 3018 3026 3028 3028 3029 3024 3015 3017 3020 3017 3020 3022 3023 3023 3023 3023 3021
2971 2975 2974 2972 2978 2984 2985 2990 2990 2986 2989 2988 2989 2990 2989 2990 2988 2992 2993 2995 2995 2999 3000 3003 3006 3007 3008 3011 3016 3015 3021 3023 3014 3007 3007 3015 3014 3014 3015 3015 3017 3018 3019 3019 3017
2968 2969 2973 2972 2973 2980 2982 2983 2981 2982 2985 2984 2986 2987 2987 2987 2988 2989 2990 2994 2996 2997 3000 2999 3003 3003 3005 3008 3012 3014 3014 3016 3011 3010 3009 3007 3013 3014 3010 3011 3013 3014 3015 3014 3012
2963 2965 2967 2970 2968 2973 2975 2974 2976 2978 2979 2981 2983 2984 2983 2983 2985 2985 2987 2990 2992 2994 2996 2997 3001 3003 3004 3007 3008 3009 3010 3013 3012 3006 3001 2999 3000 2999 3008 3009 3010 3011 3010 3009 3006
2956 2959 2961 2964 2965 2968 2969 2971 2971 2971 2976 2980 2980 2979 2979 2981 2982 2982 2986 2987 2989 2991 2994 2995 3000 3002 3003 3004 3004 3007 3007 3007 3005 3006 3000 2996 2996 3001 3003 3005 3006 3006 3004 3002 3000
2950 2953 2955 2959 2963 2963 2964 2966 2966 2969 2973 2976 2977 2976 2976 2979 2979 2980 2983 2982 2985 2987 2991 2998 2997 2999 3002 3000 3001 3001 3001 3002 3004 3003 3005 3004 3001 3001 3003 3002 3002 3001 3000 2998 2996
2945 2948 2951 2955 2957 2959 2962 2963 2964 2968 2971 2973 2973 2972 2973 2975 2979 2977 2979 2980 2982 2986 2990 2993 2994 2998 2999 3000 2998 2999 2999 3000 3002 3003 3003 3002 2999 2999 3000 3001 2999 2997 2996 2993 2992
2941 2943 2946 2950 2952 2956 2959 2960 2963 2965 2969 2970 2971 2970 2970 2973 2975 2976 2978 2981 2984 2987 2989 2992 2992 2994 2991 2992 2995 2996 2998 2999 3000 3001 2999 2999 2999 3000 3000 3000 2999 2990 2991 2989 2987
2933 2935 2940 2942 2946 2951 2955 2958 2961 2964 2965 2967 2968 2967 2969 2972 2973 2975 2977 2980 2983 2986 2987 2990 2991 2991 2990 2991 2993 2994 2996 2997 2997 2998 2998 2997 2997 2998 2996 2994 2991 2985 2984 2983 2982
2928 2932 2937 2939 2944 2948 2952 2955 2958 2961 2963 2965 2966 2967 2968 2970 2973 2974 2976 2979 2981 2983 2984 2985 2986 2987 2989 2990 2991 2992 2993 2993 2993 2994 2994 2994 2994 2993 2988 2984 2982 2979 2978 2978 2977
2927 2930 2935 2938 2942 2946 2949 2953 2956 2959 2961 2961 2964 2966 2968 2969 2971 2973 2975 2977 2979 2980 2982 2983 2984 2986 2988 2989 2990 2991 2990 2990 2991 2992 2991 2990 2988 2984 2982 2979 2977 2975 2974 2974 2973